Lancaster, CA

8:08 PM PST on February 13, 2016 (GMT -0800)
Gen Fox

Weather History for KWJF - July, 2012

Change the Weather History Date:

Monday, July 16, 2012

  Actual Average Record
Temperature  
Mean Temperature 76 °F 83 °F  
Max Temperature 89 °F 98 °F 109 °F (1960)
Min Temperature 62 °F 67 °F 55 °F (1966)
Degree Days  
Heating Degree Days 0    
Month to date heating degree days 0  
Since 1 June heating degree days 7  
Since 1 July heating degree days 0  
Cooling Degree Days 11    
Month to date cooling degree days 274  
Year to date cooling degree days 893  
Since 1 June cooling degree days 631  
Growing Degree Days 26 (Base 50)    
Moisture  
Dew Point 35 °F    
Average Humidity 32    
Maximum Humidity 48    
Minimum Humidity 15    
Precipitation  
Precipitation 0.00 in 0.00 in 0.06 in (1954)
Month to date precipitation T 0.04  
Year to date precipitation 1.70 4.95  
Since 1 July precipitation T  
Snow  
Snow 0.00 in - 0.00 in ()
Month to date snowfall 0.0  
Since 1 June snowfall 0.0  
Since 1 July snowfall 0.0  
Snow Depth 0.00 in    
Sea Level Pressure  
Sea Level Pressure 29.86 in    
Wind  
Wind Speed 15 mph (West)    
Max Wind Speed 29 mph    
Max Gust Speed 35 mph    
Visibility 10 miles    
Events      
T = Trace of Precipitation, MM = Missing Value Source: NWS Daily Summary

Daily Weather History Graph

Daily Weather History Graph

Search for Another Location

Airport or City:

Trip Planner

Search our weather history database for the weather conditions in past years. The results will help you decide how hot, cold, wet, or windy it might be!

Date:

Astronomy

Jul. 16, 2012 Rise Set
Actual Time 5:51 AM PDT 8:05 PM PDT
Civil Twilight 5:23 AM PDT 8:34 PM PDT
Nautical Twilight 4:47 AM PDT 9:09 PM PDT
Astronomical Twilight 4:09 AM PDT 9:47 PM PDT
Moon 3:40 AM PDT (7/16) 6:14 PM PDT (7/16)
Length of Visible Light 15h 11m
Length of Day
14h 13m
Waning Crescent, 6% of the Moon is Illuminated
Jul 16
Waning Crescent
Jul 18
New
Jul 26
First Quarter
Aug 1
Full
Aug 9
Last Quarter

Hourly Weather History & Observations

Time (PDT) Temp. Dew Point Humidity Pressure Visibility Wind Dir Wind Speed Gust Speed Precip Events Conditions
12:56 AM 66.9 °F 32.0 °F 27% 29.87 in 10.0 mi NNW 10.4 mph - N/A   Clear
1:17 AM 66.2 °F 35.6 °F 32% 29.92 in 10.0 mi West 12.7 mph - N/A   Clear
1:56 AM 64.0 °F 30.9 °F 29% 29.85 in 10.0 mi WNW 11.5 mph - N/A   Clear
2:56 AM 63.0 °F 28.0 °F 27% 29.85 in 10.0 mi WNW 10.4 mph - N/A   Clear
3:56 AM 63.0 °F 28.0 °F 27% 29.85 in 10.0 mi WNW 15.0 mph 20.7 mph N/A   Clear
4:56 AM 63.0 °F 28.0 °F 27% 29.85 in 10.0 mi WSW 18.4 mph - N/A   Clear
5:56 AM 64.9 °F 33.1 °F 31% 29.86 in 10.0 mi West 15.0 mph - N/A   Clear
6:56 AM 66.0 °F 33.1 °F 29% 29.87 in 10.0 mi West 13.8 mph - N/A   Clear
7:56 AM 70.0 °F 33.1 °F 26% 29.88 in 10.0 mi South 4.6 mph - N/A   Clear
8:56 AM 73.0 °F 30.0 °F 20% 29.88 in 10.0 mi Calm Calm - N/A   Clear
9:56 AM 79.0 °F 32.0 °F 18% 29.88 in 10.0 mi ENE 3.5 mph - N/A   Clear
10:56 AM 81.0 °F 35.1 °F 19% 29.88 in 10.0 mi West 10.4 mph 16.1 mph N/A   Clear
11:56 AM 86.0 °F 36.0 °F 17% 29.86 in 10.0 mi West 15.0 mph 23.0 mph N/A   Clear
12:56 PM 87.1 °F 37.9 °F 18% 29.85 in 10.0 mi WSW 20.7 mph - N/A   Clear
1:56 PM 88.0 °F 36.0 °F 16% 29.84 in 10.0 mi WSW 23.0 mph 29.9 mph N/A   Clear
2:56 PM 87.1 °F 34.0 °F 15% 29.84 in 10.0 mi SW 12.7 mph 31.1 mph N/A   Clear
3:56 PM 84.9 °F 36.0 °F 17% 29.84 in 10.0 mi WSW 21.9 mph 29.9 mph N/A   Clear
4:56 PM 82.9 °F 37.9 °F 20% 29.83 in 10.0 mi WSW 24.2 mph 34.5 mph N/A   Clear
5:56 PM 79.0 °F 41.0 °F 26% 29.83 in 10.0 mi WSW 23.0 mph - N/A   Clear
6:56 PM 75.9 °F 39.0 °F 26% 29.84 in 10.0 mi WSW 21.9 mph - N/A   Clear
7:56 PM 71.1 °F 37.9 °F 30% 29.85 in 10.0 mi West 23.0 mph - N/A   Clear
8:56 PM 69.1 °F 37.0 °F 31% 29.88 in 10.0 mi WSW 9.2 mph - N/A   Clear
9:56 PM 66.0 °F 42.1 °F 42% 29.88 in 10.0 mi WSW 16.1 mph - N/A   Clear
10:56 PM 63.0 °F 42.1 °F 46% 29.90 in 10.0 mi West 18.4 mph - N/A   Clear
11:56 PM 64.0 °F 39.0 °F 40% 29.89 in 10.0 mi West 15.0 mph - N/A   Clear